Temp
-16 -15 -15 -15 -15 -15 -15 -14 -14 -14 -14 -14 -14 -14 -15 -15 -15 -15 -14 -14 -14 -14 -13 -13 -13 -13 -12 -12 -12 -12 -12 -11 -11 -11 -11 -11 -11 -11 -10 -11 -10 -10 -10 -10 -10 -10 -10
-17 -16 -15 -15 -15 -15 -15 -15 -14 -14 -14 -14 -14 -14 -14 -14 -15 -14 -14 -14 -14 -14 -13 -13 -13 -12 -12 -12 -12 -12 -12 -12 -11 -11 -11 -11 -11 -11 -11 -11 -11 -10 -10 -10 -10 -10 -10
-16 -17 -16 -16 -15 -15 -15 -15 -15 -15 -14 -15 -14 -15 -14 -14 -14 -14 -14 -14 -14 -14 -13 -13 -13 -13 -12 -12 -12 -12 -12 -12 -12 -12 -11 -11 -11 -11 -11 -11 -11 -11 -10 -10 -10 -10 -10
-16 -16 -16 -16 -16 -16 -15 -15 -15 -15 -15 -15 -15 -15 -15 -15 -14 -14 -14 -14 -14 -14 -14 -13 -13 -13 -12 -12 -12 -12 -12 -12 -12 -12 -12 -11 -11 -11 -11 -11 -11 -11 -11 -11 -10 -10 -10
-16 -16 -16 -16 -16 -16 -16 -16 -15 -15 -15 -15 -15 -15 -15 -15 -15 -14 -14 -14 -14 -14 -14 -14 -13 -13 -13 -13 -12 -13 -13 -12 -12 -12 -12 -11 -11 -11 -12 -11 -11 -11 -11 -11 -11 -10 -10
-17 -16 -16 -16 -16 -16 -16 -16 -16 -16 -15 -15 -15 -15 -15 -15 -15 -15 -15 -15 -14 -14 -14 -14 -14 -13 -13 -13 -13 -13 -13 -13 -12 -12 -12 -12 -11 -12 -12 -12 -12 -11 -10 -11 -11 -11 -11
-17 -17 -16 -16 -16 -16 -16 -16 -16 -16 -16 -16 -16 -15 -15 -15 -15 -15 -15 -15 -15 -14 -14 -14 -14 -14 -14 -13 -13 -13 -13 -13 -13 -13 -12 -12 -11 -12 -12 -11 -11 -11 -11 -11 -12 -12 -11
-17 -17 -17 -16 -16 -16 -16 -16 -16 -16 -16 -16 -16 -15 -15 -15 -15 -15 -15 -15 -15 -15 -15 -14 -14 -14 -14 -14 -14 -13 -13 -13 -13 -13 -13 -12 -12 -13 -12 -12 -12 -11 -12 -11 -12 -12 -11
-17 -17 -17 -17 -17 -16 -16 -16 -16 -16 -16 -16 -16 -16 -15 -15 -15 -15 -15 -15 -15 -15 -15 -15 -14 -14 -14 -14 -14 -14 -13 -13 -13 -13 -13 -13 -13 -13 -13 -12 -12 -12 -12 -12 -12 -12 -11
-18 -18 -17 -17 -17 -17 -16 -16 -16 -16 -16 -16 -16 -16 -16 -16 -15 -15 -15 -15 -15 -15 -15 -15 -15 -14 -14 -14 -14 -14 -14 -14 -14 -13 -13 -13 -13 -13 -13 -13 -13 -13 -13 -13 -13 -13 -12
-18 -18 -18 -18 -17 -17 -17 -16 -16 -16 -16 -17 -16 -16 -16 -16 -16 -16 -15 -15 -15 -15 -15 -15 -14 -14 -14 -14 -14 -14 -14 -14 -14 -14 -14 -14 -14 -14 -14 -14 -13 -13 -14 -14 -13 -13 -13
-18 -18 -17 -17 -17 -17 -17 -17 -17 -16 -16 -16 -16 -16 -16 -16 -16 -16 -16 -15 -15 -15 -15 -15 -14 -14 -14 -14 -14 -14 -14 -14 -14 -14 -14 -14 -14 -14 -14 -14 -14 -14 -14 -14 -14 -14 -13
-18 -18 -18 -17 -17 -17 -17 -17 -18 -17 -16 -16 -16 -15 -15 -15 -15 -15 -15 -15 -15 -15 -15 -15 -15 -15 -15 -15 -15 -15 -15 -15 -15 -15 -14 -14 -14 -14 -15 -15 -15 -15 -14 -15 -14 -14 -14
-18 -18 -18 -18 -18 -17 -17 -17 -17 -17 -17 -17 -16 -16 -16 -15 -15 -15 -15 -15 -15 -15 -15 -15 -15 -15 -15 -15 -15 -15 -15 -15 -15 -15 -15 -15 -15 -15 -15 -15 -15 -15 -15 -15 -15 -15 -14
-19 -19 -18 -18 -18 -17 -17 -17 -18 -17 -17 -17 -16 -16 -16 -16 -16 -16 -16 -15 -15 -15 -15 -15 -16 -15 -16 -16 -16 -16 -16 -15 -15 -15 -15 -15 -15 -15 -15 -15 -15 -15 -16 -16 -16 -16 -15
-19 -19 -18 -18 -18 -18 -17 -18 -18 -17 -17 -17 -17 -17 -17 -16 -16 -16 -16 -16 -16 -16 -16 -16 -16 -16 -16 -16 -17 -16 -16 -16 -16 -16 -16 -16 -15 -16 -16 -16 -16 -16 -16 -16 -16 -16 -16
-19 -19 -18 -18 -18 -18 -18 -18 -18 -17 -17 -17 -18 -18 -18 -18 -17 -17 -17 -17 -17 -17 -17 -17 -17 -17 -17 -17 -17 -17 -16 -17 -17 -17 -16 -16 -16 -16 -16 -16 -16 -17 -17 -17 -17 -18 -17
-19 -19 -19 -19 -18 -18 -19 -19 -19 -20 -21 -21 -21 -21 -20 -19 -19 -18 -18 -18 -18 -18 -18 -18 -18 -18 -18 -18 -18 -18 -17 -17 -17 -17 -17 -17 -17 -16 -17 -17 -17 -17 -17 -17 -18 -18 -18
-20 -20 -20 -19 -19 -19 -19 -21 -20 -21 -21 -22 -21 -21 -21 -20 -20 -19 -19 -19 -18 -18 -18 -18 -18 -18 -18 -18 -18 -18 -18 -18 -18 -18 -18 -18 -17 -17 -17 -17 -17 -17 -17 -17 -18 -18 -18
-21 -20 -20 -20 -20 -20 -20 -22 -22 -21 -20 -21 -20 -20 -20 -19 -19 -19 -19 -19 -19 -19 -18 -18 -18 -18 -18 -18 -18 -18 -18 -18 -18 -18 -18 -18 -18 -18 -18 -18 -18 -18 -18 -19 -19 -19 -20
-21 -21 -20 -21 -21 -21 -22 -22 -21 -21 -21 -20 -20 -20 -20 -19 -19 -19 -19 -19 -19 -19 -19 -19 -19 -19 -19 -18 -19 -19 -19 -19 -18 -18 -18 -18 -18 -18 -18 -19 -18 -18 -18 -19 -20 -21 -22
-22 -22 -21 -21 -21 -22 -22 -22 -21 -21 -21 -21 -20 -20 -20 -20 -20 -19 -19 -19 -19 -19 -19 -19 -19 -19 -19 -19 -19 -19 -19 -19 -19 -19 -19 -19 -19 -19 -19 -20 -20 -19 -19 -20 -21 -22 -23
-22 -22 -21 -22 -22 -22 -21 -21 -21 -21 -21 -21 -21 -20 -20 -20 -20 -20 -20 -20 -20 -19 -19 -19 -19 -19 -19 -19 -19 -19 -19 -20 -20 -20 -20 -20 -20 -20 -20 -20 -20 -20 -22 -22 -23 -24 -24
-21 -21 -23 -23 -23 -23 -22 -21 -21 -21 -21 -21 -20 -20 -20 -20 -20 -20 -20 -20 -20 -20 -20 -20 -20 -20 -20 -20 -20 -21 -21 -21 -21 -21 -21 -21 -21 -21 -21 -22 -22 -23 -24 -25 -25 -26 -27
-23 -24 -23 -22 -22 -22 -21 -21 -21 -21 -21 -21 -20 -20 -20 -20 -20 -20 -20 -20 -21 -21 -21 -21 -21 -21 -21 -21 -21 -21 -21 -21 -21 -21 -22 -22 -22 -23 -24 -25 -25 -25 -26 -27 -27 -28 -28
-24 -24 -24 -23 -23 -22 -22 -21 -21 -21 -21 -21 -21 -21 -21 -21 -21 -21 -21 -21 -21 -22 -22 -22 -22 -22 -22 -22 -22 -22 -22 -22 -22 -23 -23 -23 -24 -25 -27 -28 -28 -28 -28 -29 -30 -29 -30
-23 -23 -23 -23 -22 -22 -22 -22 -22 -21 -22 -22 -22 -22 -22 -22 -22 -22 -22 -22 -22 -22 -22 -22 -22 -22 -22 -22 -23 -23 -23 -23 -24 -25 -26 -27 -27 -28 -29 -30 -30 -30 -31 -31 -31 -31 -31
-23 -23 -23 -23 -22 -22 -22 -22 -22 -23 -23 -23 -23 -23 -23 -23 -23 -23 -23 -23 -23 -23 -23 -23 -23 -23 -23 -23 -23 -24 -24 -25 -26 -27 -29 -29 -30 -31 -31 -31 -31 -32 -32 -32 -32 -32 -32
-23 -23 -23 -23 -23 -23 -23 -23 -23 -24 -24 -24 -23 -23 -23 -23 -23 -23 -23 -23 -23 -23 -23 -23 -24 -24 -24 -24 -24 -25 -27 -28 -29 -29 -31 -31 -32 -32 -32 -32 -32 -33 -33 -32 -33 -33 -33
Height
5728 5727 5726 5725 5724 5722 5721 5720 5719 5717 5715 5713 5712 5710 5709 5709 5709 5709 5711 5713 5715 5718 5721 5723 5726 5729 5732 5735 5738 5740 5742 5745 5747 5750 5752 5754 5757 5758 5761 5764 5766 5768 5770 5772 5774 5775 5777
5725 5723 5722 5721 5721 5720 5719 5718 5717 5716 5715 5713 5712 5711 5710 5709 5709 5710 5711 5713 5715 5717 5719 5722 5724 5727 5730 5733 5735 5737 5739 5742 5744 5747 5749 5751 5753 5756 5759 5761 5764 5765 5767 5769 5770 5771 5774
5722 5720 5718 5717 5716 5716 5716 5715 5714 5714 5713 5712 5711 5711 5710 5710 5710 5710 5711 5712 5714 5715 5717 5720 5722 5724 5726 5730 5732 5734 5736 5738 5741 5744 5746 5748 5750 5753 5755 5757 5760 5761 5764 5765 5766 5767 5770
5716 5715 5715 5714 5712 5712 5712 5711 5711 5711 5710 5710 5710 5709 5709 5708 5709 5709 5710 5711 5712 5714 5715 5717 5719 5721 5723 5726 5728 5731 5733 5735 5737 5740 5742 5744 5746 5749 5751 5753 5756 5758 5760 5760 5760 5761 5764
5710 5709 5709 5709 5708 5708 5707 5707 5707 5707 5707 5707 5707 5707 5707 5707 5707 5707 5708 5709 5710 5711 5713 5714 5716 5718 5721 5723 5725 5728 5729 5731 5733 5736 5738 5740 5742 5744 5747 5749 5751 5753 5754 5754 5754 5757 5759
5703 5703 5702 5702 5702 5702 5702 5702 5702 5702 5703 5704 5704 5704 5704 5704 5705 5705 5706 5707 5707 5709 5710 5711 5713 5717 5718 5719 5721 5723 5725 5727 5729 5731 5733 5735 5738 5740 5743 5742 5743 5743 5747 5750 5750 5751 5751
5696 5695 5695 5695 5696 5696 5696 5697 5697 5698 5698 5699 5699 5700 5700 5701 5702 5702 5703 5704 5706 5707 5707 5709 5710 5712 5713 5715 5716 5719 5721 5723 5724 5726 5728 5729 5733 5736 5734 5734 5736 5738 5740 5742 5743 5742 5743
5688 5688 5688 5688 5688 5688 5689 5690 5690 5692 5693 5693 5694 5695 5696 5697 5698 5699 5700 5701 5702 5704 5704 5705 5706 5707 5709 5710 5712 5714 5716 5718 5719 5720 5722 5724 5726 5726 5728 5728 5729 5730 5731 5734 5735 5734 5733
5680 5679 5680 5680 5680 5680 5681 5682 5683 5683 5685 5687 5688 5689 5691 5693 5693 5695 5696 5697 5698 5698 5700 5701 5702 5703 5704 5706 5707 5708 5710 5711 5713 5714 5715 5716 5718 5720 5720 5721 5721 5722 5722 5723 5723 5724 5725
5673 5673 5672 5672 5672 5672 5673 5674 5675 5676 5677 5679 5681 5683 5685 5687 5690 5690 5691 5692 5693 5693 5694 5696 5696 5697 5699 5700 5702 5702 5703 5706 5707 5707 5708 5709 5710 5712 5713 5714 5712 5714 5714 5713 5713 5713 5716
5668 5667 5666 5665 5665 5664 5665 5665 5667 5668 5670 5671 5673 5676 5678 5680 5682 5684 5686 5686 5687 5688 5687 5690 5691 5692 5693 5695 5697 5696 5697 5698 5700 5700 5703 5703 5703 5704 5706 5706 5704 5705 5705 5704 5703 5702 5703
5663 5662 5661 5660 5658 5657 5657 5656 5658 5660 5661 5664 5666 5668 5670 5673 5675 5677 5678 5679 5681 5682 5680 5682 5684 5685 5687 5688 5689 5689 5690 5692 5693 5694 5694 5695 5695 5696 5696 5697 5696 5694 5694 5693 5692 5691 5691
5658 5657 5656 5654 5652 5651 5650 5649 5650 5651 5653 5655 5657 5659 5662 5664 5667 5668 5670 5672 5673 5671 5675 5676 5677 5678 5680 5680 5681 5682 5683 5684 5685 5686 5686 5687 5687 5687 5687 5687 5686 5685 5683 5681 5679 5680 5682
5653 5652 5651 5649 5647 5645 5644 5643 5643 5643 5645 5647 5648 5651 5653 5655 5657 5659 5661 5663 5663 5665 5666 5668 5669 5669 5670 5671 5672 5673 5673 5674 5674 5675 5675 5677 5679 5677 5676 5676 5675 5673 5672 5670 5664 5667 5666
5648 5647 5645 5644 5642 5640 5638 5637 5637 5636 5637 5638 5640 5642 5644 5646 5648 5650 5653 5653 5655 5657 5657 5658 5659 5660 5660 5661 5662 5663 5663 5663 5663 5665 5665 5664 5667 5665 5664 5663 5663 5661 5660 5657 5653 5652 5648
5642 5642 5641 5639 5637 5634 5632 5631 5631 5631 5630 5631 5631 5634 5636 5638 5640 5642 5644 5646 5647 5648 5649 5649 5650 5651 5652 5653 5653 5652 5652 5653 5654 5655 5654 5654 5653 5654 5652 5651 5650 5648 5646 5644 5641 5637 5634
5638 5636 5635 5634 5632 5629 5627 5626 5625 5625 5624 5625 5625 5627 5630 5632 5634 5636 5638 5639 5640 5641 5642 5643 5643 5643 5643 5644 5644 5644 5644 5646 5646 5645 5643 5643 5643 5645 5642 5641 5640 5639 5636 5632 5629 5626 5622
5635 5632 5631 5629 5627 5624 5622 5620 5620 5619 5622 5623 5623 5625 5627 5629 5632 5631 5633 5634 5634 5635 5636 5636 5636 5636 5636 5636 5637 5636 5636 5635 5636 5635 5634 5634 5631 5631 5627 5626 5625 5623 5621 5620 5614 5612 5607
5629 5627 5626 5624 5621 5619 5617 5617 5617 5618 5619 5621 5622 5623 5624 5626 5627 5628 5629 5630 5630 5630 5630 5630 5629 5629 5629 5629 5629 5628 5627 5627 5625 5625 5623 5623 5621 5619 5613 5611 5609 5608 5605 5601 5595 5591 5591
5622 5622 5621 5620 5617 5615 5613 5614 5616 5618 5620 5621 5622 5622 5623 5623 5623 5624 5624 5624 5624 5623 5623 5622 5622 5621 5621 5621 5620 5618 5618 5617 5615 5613 5612 5609 5609 5607 5604 5597 5592 5590 5586 5581 5576 5570 5567
5614 5615 5616 5615 5613 5613 5611 5613 5615 5616 5617 5618 5618 5618 5619 5619 5619 5618 5619 5618 5617 5617 5616 5615 5614 5613 5612 5612 5610 5609 5607 5604 5601 5599 5598 5595 5592 5590 5586 5580 5575 5574 5569 5563 5558 5553 5547
5607 5608 5609 5610 5610 5610 5610 5611 5612 5613 5614 5615 5614 5614 5614 5613 5613 5613 5611 5611 5610 5610 5609 5607 5606 5604 5603 5601 5599 5597 5596 5592 5589 5585 5581 5579 5575 5572 5569 5562 5557 5554 5551 5543 5536 5531 5525
5599 5601 5602 5604 5606 5607 5607 5608 5608 5609 5610 5609 5609 5609 5609 5608 5606 5606 5605 5603 5602 5601 5600 5597 5595 5593 5591 5589 5586 5584 5581 5577 5574 5570 5565 5562 5556 5553 5550 5543 5539 5537 5530 5524 5517 5512 5507
5594 5595 5597 5599 5600 5601 5603 5603 5603 5604 5604 5604 5604 5603 5602 5600 5599 5598 5597 5595 5593 5592 5590 5588 5585 5582 5580 5576 5573 5570 5566 5562 5557 5553 5548 5543 5538 5533 5528 5521 5519 5517 5510 5505 5501 5496 5491
5591 5592 5593 5595 5596 5596 5597 5597 5598 5597 5597 5597 5596 5595 5593 5591 5591 5589 5588 5585 5583 5581 5579 5576 5573 5571 5567 5564 5559 5555 5551 5546 5540 5535 5530 5525 5518 5513 5509 5503 5500 5500 5495 5490 5486 5483 5478
5590 5589 5590 5590 5591 5591 5591 5592 5591 5591 5589 5588 5587 5585 5584 5583 5581 5579 5577 5574 5572 5570 5568 5565 5561 5558 5555 5550 5545 5540 5535 5529 5523 5517 5512 5506 5499 5496 5491 5485 5482 5484 5480 5475 5470 5470 5465
5588 5587 5586 5586 5586 5586 5585 5584 5583 5582 5580 5579 5578 5576 5575 5573 5571 5568 5566 5563 5560 5557 5554 5551 5547 5543 5540 5535 5530 5524 5519 5514 5507 5500 5495 5489 5485 5482 5476 5473 5471 5469 5466 5462 5459 5458 5452
5584 5583 5581 5580 5579 5578 5577 5576 5574 5573 5571 5570 5568 5566 5565 5562 5560 5557 5554 5551 5548 5545 5541 5537 5534 5528 5523 5518 5513 5506 5501 5495 5489 5484 5480 5478 5475 5473 5469 5466 5464 5461 5457 5454 5450 5445 5442
5578 5576 5574 5573 5571 5570 5568 5567 5565 5564 5562 5560 5558 5555 5553 5550 5547 5544 5541 5538 5534 5531 5527 5522 5518 5512 5507 5501 5496 5490 5485 5479 5475 5474 5470 5469 5467 5465 5462 5458 5454 5451 5448 5444 5440 5435 5431
Wind_Speed
15 15 15 15 13 11 9 9 9 8 5 3 2 2 3 5 8 9 11 12 12 13 13 14 15 16 17 18 16 17 16 17 17 19 19 18 18 18 16 16 16 17 15 15 13 14 13
18 16 16 16 15 14 13 11 9 8 7 5 4 3 3 4 5 7 8 10 11 12 13 14 15 17 18 18 17 17 17 16 16 17 18 19 19 18 17 17 17 18 17 16 16 17 14
21 20 18 17 16 17 15 13 12 9 8 8 6 6 6 6 6 7 8 10 11 12 14 15 16 18 19 19 20 19 17 16 15 16 18 19 19 19 18 19 18 20 19 18 18 19 16
27 24 21 19 18 17 18 16 14 13 11 9 9 8 8 8 8 8 8 9 10 12 14 15 16 18 20 21 22 22 19 17 16 16 17 19 20 19 19 20 19 21 19 18 22 23 22
30 27 26 23 20 19 18 18 17 16 15 13 11 11 10 10 10 10 9 9 10 11 12 14 16 18 20 23 23 23 23 20 19 18 18 19 20 20 20 20 22 21 22 25 26 25 24
29 30 29 27 26 22 20 20 19 19 18 17 15 13 12 12 12 11 11 11 11 12 13 14 15 18 20 21 23 24 24 23 22 22 20 21 21 20 18 22 25 30 29 26 25 26 29
27 28 28 29 28 27 26 23 21 20 20 20 19 17 15 14 13 13 13 13 13 14 15 15 17 18 20 21 23 24 24 25 25 25 25 25 24 19 25 28 28 28 29 29 26 29 34
28 33 34 29 29 30 30 29 26 22 21 21 22 21 20 17 17 15 14 14 14 15 17 17 18 19 21 21 23 24 25 27 27 27 28 27 26 27 27 30 31 32 33 32 31 33 38
27 26 29 30 33 31 32 32 31 29 24 24 22 23 23 21 20 19 18 17 16 17 18 18 19 21 22 23 24 26 27 28 29 29 30 31 31 29 31 33 35 36 37 38 39 39 40
23 22 23 26 30 33 32 33 34 32 30 27 26 24 23 23 23 22 21 21 20 20 21 20 22 22 22 22 24 26 28 29 30 31 33 33 33 33 33 35 38 39 39 42 42 44 43
20 20 22 24 24 27 33 32 33 34 32 30 29 28 28 25 24 24 24 23 23 23 26 25 23 23 23 24 24 26 27 29 30 32 32 34 34 35 34 36 39 41 41 43 45 47 49
20 20 20 21 22 25 24 32 32 32 32 32 31 32 32 30 29 28 28 27 27 29 31 29 26 25 24 24 25 26 27 27 28 29 30 30 33 34 34 35 37 41 42 44 46 48 51
22 20 22 22 20 21 24 24 27 29 31 30 31 33 34 34 33 32 32 32 33 34 32 32 30 30 30 30 31 31 31 32 34 35 36 37 39 40 40 41 42 45 48 50 52 53 53
19 17 17 19 17 18 20 22 24 33 30 28 27 31 31 33 33 33 34 35 36 35 34 34 33 33 33 32 33 34 36 38 40 41 42 42 41 43 45 46 47 48 50 51 55 56 58
23 18 20 22 21 20 20 20 22 23 26 29 30 29 28 32 31 31 32 34 33 32 32 33 33 35 36 36 37 38 40 42 42 42 42 44 42 43 44 45 45 45 45 48 52 55 59
19 20 22 24 22 21 20 20 21 22 23 23 22 23 24 24 26 28 29 29 29 29 30 32 33 34 33 32 34 36 37 38 37 37 38 40 42 39 39 40 41 42 43 45 47 51 56
20 22 22 22 22 21 22 19 21 24 23 22 21 18 17 19 22 23 24 25 26 28 29 29 30 30 31 32 33 35 36 34 34 34 36 37 40 39 39 40 41 42 44 47 50 53 56
19 19 22 23 22 21 19 18 15 10 10 9 5 8 11 12 13 14 16 18 21 22 23 23 24 25 26 28 29 31 31 30 30 32 35 37 40 41 44 45 47 49 50 51 55 59 62
30 23 21 22 20 19 18 13 10 10 5 6 6 8 10 11 12 13 15 18 21 23 24 25 26 26 27 27 29 29 30 32 35 36 38 39 42 44 48 52 53 54 57 60 63 65 65
39 27 23 19 17 15 9 8 7 9 9 9 10 10 11 11 12 14 15 17 19 22 23 24 25 26 27 29 31 34 35 37 40 42 44 46 47 49 52 56 58 60 61 62 64 67 67
27 23 25 19 15 9 11 10 10 12 12 12 13 12 14 14 15 17 19 20 22 24 26 27 27 28 30 32 34 36 39 41 44 47 49 51 54 54 55 59 62 63 64 66 66 65 66
31 25 22 18 16 16 11 11 13 15 16 17 16 16 16 15 17 19 21 22 24 25 26 27 30 31 33 36 39 41 43 45 47 50 52 54 56 57 58 61 63 66 67 67 67 68 68
21 25 21 19 19 18 18 16 17 17 18 19 19 20 20 21 21 23 23 25 26 27 29 31 33 36 38 39 42 44 45 47 49 50 52 54 57 59 61 63 65 66 63 66 66 66 66
27 22 20 21 20 19 20 21 21 20 21 21 22 24 24 24 26 28 29 30 32 32 33 33 35 37 38 40 43 46 48 50 52 53 56 57 59 61 62 63 63 60 59 57 57 57 57
11 10 13 17 20 22 20 21 22 24 24 26 27 27 28 29 31 31 32 33 34 35 36 38 39 40 42 45 49 51 51 54 58 59 61 60 59 58 56 55 57 53 50 50 51 52 51
11 11 12 18 20 19 21 26 25 27 29 29 29 30 31 32 32 34 35 36 37 38 39 41 42 44 47 49 51 54 57 60 62 61 61 58 56 54 49 49 50 47 46 46 47 46 44
16 17 19 18 19 22 23 25 27 29 30 30 30 31 33 34 36 37 38 40 41 42 44 46 48 50 51 54 56 57 58 57 58 55 50 47 46 44 42 42 43 41 40 41 43 42 41
20 21 20 21 23 26 28 30 29 29 30 31 33 34 36 38 40 40 42 43 44 46 49 50 51 55 57 58 59 57 56 54 51 44 38 37 36 34 35 35 37 36 37 38 38 37 37
21 22 23 24 25 26 28 28 30 31 32 34 36 38 40 41 43 44 45 47 49 50 50 54 56 58 60 58 55 53 48 43 38 33 31 31 30 31 32 33 33 34 36 38 38 40 42
Wind_Direction
299 295 293 290 289 290 292 298 304 308 311 330 13 83 116 140 151 159 167 173 180 190 200 208 211 207 208 213 217 213 212 214 215 215 215 215 221 220 221 225 228 231 231 235 235 240 243
288 289 286 284 285 285 286 286 286 292 292 275 257 221 195 183 180 181 185 190 196 202 210 214 214 210 210 212 215 210 211 217 220 223 223 224 227 230 230 235 236 241 240 241 244 245 247
276 280 281 282 279 278 278 278 279 275 277 279 263 245 226 219 220 219 216 215 214 215 217 218 217 214 213 211 214 212 210 214 221 228 230 234 234 234 236 240 244 246 248 248 250 255 255
272 272 272 278 280 276 271 269 270 272 267 265 266 260 246 233 228 228 226 225 222 222 221 220 220 219 218 214 216 216 213 215 222 232 238 239 240 242 243 245 247 251 252 257 257 257 260
265 265 272 269 269 273 273 268 262 261 264 260 255 257 256 249 240 237 235 231 228 225 225 222 220 221 221 218 220 222 221 217 221 228 236 244 247 247 248 253 254 254 249 246 253 259 262
272 264 261 263 269 261 265 267 264 256 255 257 255 253 253 255 254 249 246 242 238 233 232 227 225 223 223 223 223 225 227 225 226 229 233 239 242 245 249 252 248 251 255 258 260 261 261
266 273 266 260 258 262 260 256 259 259 252 250 251 251 249 252 252 256 255 251 248 243 240 235 232 230 229 227 228 229 231 235 233 234 236 241 245 243 242 251 257 259 260 259 256 259 261
269 265 272 268 261 256 257 261 246 251 254 250 247 247 247 244 249 248 251 254 254 250 250 244 241 239 238 236 236 237 237 239 242 243 244 246 246 244 247 252 255 257 259 260 256 256 262
271 268 266 268 263 259 255 254 258 247 243 250 250 247 245 244 245 245 245 247 250 253 254 256 251 248 246 244 243 244 244 244 245 247 249 249 253 250 252 255 258 258 260 261 261 259 263
275 277 277 273 264 261 258 255 253 255 252 237 248 251 249 246 246 247 248 248 249 250 254 252 253 254 255 255 253 251 252 253 252 252 253 255 257 259 257 259 262 264 267 268 269 268 267
282 281 283 277 279 267 260 257 254 251 251 261 250 245 251 251 249 250 250 251 252 253 258 254 254 257 259 258 259 256 256 258 258 260 262 265 267 267 269 268 268 269 271 272 272 272 271
285 284 289 292 286 274 269 254 251 250 249 250 249 252 251 251 251 251 252 252 253 254 255 258 259 259 261 260 258 257 257 258 259 259 260 261 264 266 266 268 269 272 272 271 271 273 272
281 289 291 295 300 287 278 269 249 249 250 250 251 250 249 251 250 250 250 251 252 253 257 258 260 261 260 260 260 259 260 260 259 259 260 260 262 265 267 267 267 268 270 272 272 271 273
272 283 290 300 310 309 290 275 270 250 254 251 251 253 252 250 249 249 250 250 251 254 256 258 260 259 259 258 256 255 257 258 259 260 262 261 262 264 266 268 270 270 272 274 275 274 274
290 290 297 299 304 308 297 281 273 266 257 251 251 253 252 248 248 247 248 249 252 252 253 254 255 255 255 254 255 255 257 259 260 263 266 268 267 268 268 270 271 271 272 273 275 274 274
285 287 300 296 294 301 298 287 270 268 255 249 240 241 242 242 242 243 243 246 246 247 249 251 252 254 255 255 254 256 257 260 262 264 265 266 266 267 272 272 273 277 278 279 280 280 279
286 289 292 295 292 307 296 280 275 259 257 248 225 222 226 231 233 237 240 244 245 247 249 251 253 254 255 254 255 258 260 261 263 266 266 268 268 270 269 269 271 274 277 278 280 279 280
301 300 299 295 292 298 297 283 260 220 193 202 213 201 214 223 222 227 235 240 246 250 252 252 251 254 254 255 255 258 261 263 264 267 270 274 277 278 279 280 281 281 282 281 279 280 280
298 316 302 302 300 301 286 244 254 214 218 210 242 229 244 246 251 263 271 269 267 266 263 261 260 257 256 256 258 257 261 267 270 273 276 278 280 282 284 285 284 283 283 283 282 281 280
292 301 307 304 306 298 264 188 180 217 217 224 232 235 245 259 269 274 281 284 282 277 273 270 267 266 265 265 268 272 273 275 278 279 280 280 281 283 284 285 285 285 285 285 284 283 284
273 284 293 293 290 261 222 212 231 231 234 238 253 256 264 270 280 285 287 288 289 285 279 276 274 274 274 275 277 279 281 283 284 284 284 285 286 286 286 286 285 287 286 284 283 282 279
267 271 266 269 267 239 230 241 243 243 247 244 249 263 271 279 282 290 292 288 287 287 285 282 280 279 278 279 281 282 283 284 286 287 288 288 289 288 287 285 285 285 285 284 283 283 284
263 254 245 250 246 241 240 239 244 251 257 257 266 268 267 273 276 280 282 284 286 287 285 283 283 283 284 285 285 286 289 291 292 293 293 293 291 290 288 285 284 283 283 282 283 283 283
257 246 240 243 243 243 240 250 258 265 260 268 270 275 281 284 284 283 283 285 291 294 293 291 291 292 291 292 292 294 295 296 297 297 298 298 295 291 287 285 283 284 282 282 282 282 283
274 265 261 258 248 251 258 262 266 269 276 277 282 284 286 288 286 285 287 293 297 298 297 297 298 296 296 298 299 299 300 300 303 302 302 298 293 287 285 283 283 283 283 283 283 282 284
308 283 265 265 251 263 259 262 267 272 275 280 283 285 286 288 287 290 292 295 296 295 295 295 295 297 298 299 301 302 302 303 304 302 300 295 290 287 286 286 287 288 287 287 286 286 286
285 274 266 261 266 262 270 275 278 277 279 280 280 284 285 285 286 290 292 294 294 295 297 298 300 299 299 301 301 303 302 302 300 296 291 286 283 284 285 286 288 291 291 291 292 292 290
283 276 273 273 269 267 271 274 274 275 275 278 282 286 289 289 290 293 293 293 295 297 299 301 300 301 302 303 303 301 301 300 296 290 285 282 282 283 283 285 287 288 287 289 290 290 290
294 288 283 279 279 277 276 276 276 276 279 286 291 292 294 293 295 293 294 295 297 299 301 302 303 302 302 302 299 298 298 294 290 286 283 284 285 287 287 289 289 290 289 289 289 289 290